Home > Weather > Talcahuano > Past weeks

Flag for Chile Weather for the Past 2 Weeks in Talcahuano, Chile

Now
50 °F

Fog.


Feels Like: 50 °F
Forecast: 53 / 63 °F
Wind: No wind

Location: Concepcion Airport

Current Time: Apr 30, 2016 at 11:03:09 AM

Latest Report: Apr 30, 2016 at 10:00 AM


Visibility: 5 mi

Pressure: 29.98 "Hg

Humidity: 94%

Dew Point: 48 °F

Location of TalcahuanoLocation

Historic Weather in Talcahuano — Graph

°F

Talcahuano Temperature Yesterday

Maximum temperature yesterday: 61 °F (at 2:00 PM)
Minimum temperature yesterday: 46 °F (at 9:00 AM)
Average temperature yesterday: 53 °F

High & Low Weather Summary for the Past Weeks

 TemperatureHumidityPressure
High73 °F (Apr 26, 5:00 PM)100% (Apr 15, 10:00 PM)30.27 "Hg (Apr 15, 10:00 PM)
Low39 °F (Apr 19, 4:00 AM)25% (Apr 26, 5:00 PM)29.77 "Hg (Apr 15, 10:00 AM)
Average54 °F80%30.02 "Hg
* Reported Apr 15 10:00 AM — Apr 30 10:00 AM, Talcahuano, Weather by CustomWeather, © 2016

Note: Actual official high and low records may vary slightly from our data, if they occured in-between our weather recording intervals... More about our weather records

Advertising

Talcahuano Weather History for the Previous 24 Hours

Scroll right to see more
 ConditionsComfort  
Time TempWeatherWind HumidityBarometerVisibility
10:00 AM
Sat, Apr 30
50 °FFog.No wind94%29.98 "Hg5 mi
9:00 AM45 °FFog.3 mph100%29.98 "Hg4 mi
8:00 AM46 °FClear.5 mph100%29.98 "Hg10 mi
7:00 AM46 °FRain. Fog.No wind93%29.98 "HgN/A
6:00 AM48 °FCool.7 mph94%29.98 "Hg1 mi
5:00 AM46 °FFog.5 mph100%30.01 "Hg1 mi
4:00 AM46 °FCool.1 mph100%30.01 "Hg1 mi
3:00 AM48 °FCool.2 mph94%30.04 "Hg1 mi
2:00 AM46 °FFog.2 mph100%30.04 "Hg1 mi
1:00 AM48 °FFog.2 mph100%30.04 "Hg1 mi
12:00 AM50 °FFog.2 mph100%30.07 "Hg2 mi
11:00 PM
Fri, Apr 29
48 °FFog.1 mph100%30.07 "Hg1 mi
10:00 PM50 °FFog.2 mph94%30.07 "Hg2 mi
9:00 PM54 °FFog.2 mph94%30.09 "Hg2 mi
8:00 PM55 °FClear.3 mph88%30.09 "Hg5 mi
7:00 PM57 °FSunny.5 mph88%30.09 "Hg10 mi
6:00 PM59 °FSunny.9 mph82%30.09 "Hg10 mi
5:00 PM59 °FPassing clouds.12 mph82%30.09 "HgN/A
4:00 PM59 °FPassing clouds.9 mph77%30.09 "HgN/A
3:00 PM59 °FClear.10 mph82%30.12 "Hg4 mi
2:00 PM61 °FHaze.7 mph77%30.12 "Hg3 mi
1:00 PM59 °FHaze.5 mph77%30.15 "Hg3 mi
12:00 PM52 °FFog.No wind100%30.18 "Hg1 mi
11:00 AM50 °FCool.5 mph100%30.15 "Hg1 mi
Weather by CustomWeather, © 2016

See weather overviewHow to use our weather pages